Vorticity
nan nan nan nan nan nan nan nan nan nan nan nan nan nan nan nan nan nan nan nan nan nan nan nan nan nan nan nan nan nan nan nan nan nan nan nan nan nan nan nan nan nan nan nan nan nan nan nan nan
nan 8 9 8 6 4 7 8 7 8 4 6 7 5 7 7 7 9 14 15 7 4 6 8 8 5 4 5 6 6 6 7 8 7 5 4 5 5 6 6 6 5 5 5 5 5 5 5 nan
nan 9 8 9 3 3 5 4 7 9 8 8 5 8 7 4 10 8 11 13 4 5 6 10 8 5 4 6 6 5 5 5 6 6 4 5 5 5 5 5 5 4 4 4 4 5 5 5 nan
nan 5 9 9 3 5 6 1 2 6 9 7 6 4 8 10 10 15 13 5 4 5 8 9 6 5 5 6 5 4 5 5 5 5 5 5 4 4 4 5 4 4 4 4 5 5 5 5 nan
nan 9 9 4 7 6 5 6 4 6 8 6 7 7 3 6 18 15 5 5 4 5 7 9 8 5 4 5 5 4 5 5 5 6 7 4 3 3 4 4 4 3 4 7 7 5 6 5 nan
nan 8 7 8 6 5 5 10 8 7 6 6 8 9 4 8 11 8 6 6 5 5 7 8 7 5 4 4 5 6 5 6 5 5 6 5 4 3 4 4 4 4 5 7 6 6 5 4 nan
nan 8 7 6 6 6 10 9 5 8 6 8 5 3 7 9 6 9 8 9 8 6 5 6 8 8 6 4 5 6 5 4 5 6 5 5 6 7 6 4 4 5 6 6 7 7 5 5 nan
nan 7 8 7 8 6 10 5 9 13 5 8 10 7 7 11 9 6 9 10 8 5 5 6 8 7 6 8 8 6 5 5 5 5 4 7 11 11 7 5 6 5 6 5 5 5 5 4 nan
nan 6 7 10 7 5 4 6 8 11 11 6 11 10 11 9 6 5 5 8 8 6 6 5 7 7 6 7 9 9 6 5 5 5 3 3 9 11 8 8 7 6 6 5 5 6 6 5 nan
nan 6 6 6 3 6 6 5 6 7 10 8 4 7 13 10 6 5 7 7 6 5 7 6 6 7 6 6 6 7 6 5 6 6 5 5 7 7 7 9 7 5 5 5 6 5 4 7 nan
nan 7 6 5 6 6 4 7 11 7 6 6 7 9 3 2 8 9 7 9 6 4 6 8 6 7 5 5 4 5 7 7 8 7 6 6 6 6 6 7 6 7 6 5 6 6 7 7 nan
nan 8 6 4 5 5 7 7 7 9 4 2 4 8 7 5 5 7 9 7 8 9 6 6 7 6 4 6 7 6 6 7 7 8 6 5 7 7 7 7 8 7 7 8 6 6 7 6 nan
nan 6 9 6 8 8 7 8 9 6 4 6 9 6 4 5 9 11 5 4 11 11 9 7 5 5 6 5 6 7 6 6 7 7 7 6 8 7 7 8 8 8 7 7 7 7 6 6 nan
nan 10 5 9 11 8 11 6 7 5 7 4 4 10 9 7 5 5 9 10 8 8 10 11 7 6 6 5 6 5 7 7 7 7 9 7 7 8 7 8 8 8 8 8 8 7 7 7 nan
nan 9 9 11 7 4 10 8 11 4 5 5 5 6 9 7 6 7 6 8 8 11 12 12 8 8 7 5 4 6 7 7 7 8 9 8 8 9 8 8 8 7 8 7 6 7 7 7 nan
nan 6 8 7 8 12 8 9 4 8 9 7 6 8 7 8 11 6 5 8 5 10 12 10 12 9 6 6 5 6 8 8 7 8 9 10 7 7 7 8 8 8 7 6 6 6 6 7 nan
nan 9 4 10 13 12 3 9 7 9 8 7 9 7 8 12 7 9 8 6 8 8 9 8 12 10 7 5 5 8 7 8 8 8 8 10 9 8 7 6 8 7 7 7 6 7 8 6 nan
nan 6 8 7 6 11 7 6 8 13 10 6 6 7 8 10 9 8 11 9 9 8 11 9 9 10 6 6 7 6 8 8 9 9 12 9 7 8 6 7 9 7 7 7 8 7 8 9 nan
nan 6 6 6 7 7 10 6 6 5 5 8 7 6 5 7 10 10 9 10 10 8 9 14 10 7 5 8 8 8 8 6 9 12 12 8 8 7 6 8 7 7 9 8 6 6 5 7 nan
nan 8 10 10 9 8 8 9 14 12 10 10 5 5 8 6 8 8 8 8 9 8 9 10 12 9 5 5 6 10 11 8 10 10 11 10 9 7 8 6 6 7 8 9 6 6 7 6 nan
nan 10 11 9 10 7 11 14 12 12 13 15 16 11 10 10 8 7 9 9 8 8 8 10 12 12 9 4 1 6 7 9 11 11 10 11 11 9 7 7 7 7 7 9 8 8 8 6 nan
nan 10 10 9 13 8 7 13 7 9 10 11 12 16 14 11 11 10 8 8 8 10 9 9 11 15 10 9 6 6 4 4 7 9 10 12 9 9 9 9 7 6 7 9 9 9 8 9 nan
nan 8 9 9 7 10 9 12 7 10 10 13 15 8 9 11 11 10 10 9 8 9 10 12 11 11 13 10 7 5 7 6 9 14 11 8 10 10 8 8 6 6 7 9 9 9 8 8 nan
nan 5 6 9 8 9 15 8 8 9 7 7 8 9 7 8 11 11 8 11 14 13 13 12 11 10 15 11 10 8 6 6 8 9 8 9 9 9 9 8 7 7 8 8 7 8 9 8 nan
nan 7 6 5 12 10 10 8 6 6 7 4 5 11 11 8 9 10 9 12 11 8 9 11 12 15 15 11 9 10 9 9 7 4 6 7 7 10 10 8 7 7 8 9 9 8 9 9 nan
nan 8 8 9 7 11 9 8 8 7 10 12 12 14 14 12 12 10 11 11 5 5 7 7 10 15 15 13 10 11 10 8 10 10 8 8 9 11 10 8 10 9 8 7 7 8 10 9 nan
nan 8 9 8 8 11 7 7 11 12 11 7 8 11 9 12 12 13 13 10 7 6 6 6 6 10 13 10 10 12 11 11 11 10 7 8 10 12 11 9 10 8 8 8 7 8 8 8 nan
nan 5 6 10 11 8 10 12 11 8 6 2 7 5 6 6 6 12 14 10 6 6 6 9 10 10 12 13 10 11 11 8 10 10 10 8 10 12 9 9 8 8 8 7 8 9 9 8 nan
nan 6 10 14 8 7 10 12 10 8 6 4 7 7 7 6 8 9 8 8 8 9 8 8 9 10 13 15 13 11 11 10 11 9 9 10 11 9 9 8 8 8 9 6 8 9 9 10 nan
nan nan nan nan nan nan nan nan nan nan nan nan nan nan nan nan nan nan nan nan nan nan nan nan nan nan nan nan nan nan nan nan nan nan nan nan nan nan nan nan nan nan nan nan nan nan nan nan nan
CAPE
14 0 0 0 0 0 0 0 0 0 0 0 0 0 0 0 0 2 0 191 670 985 1134 1025 1186 731 177 116 56 77 108 134 395 160 112 96 15 3 1 0 0 4 8 14 18 16 4 0 0
0 0 0 0 0 0 0 0 0 0 0 0 0 0 0 15 35 188 164 611 871 1047 982 784 1213 573 205 97 110 229 139 326 407 346 152 9 1 0 0 0 1 3 3 1 0 0 0 0 0
0 0 0 0 0 0 0 0 0 0 0 0 0 0 0 12 16 138 359 676 935 1012 806 831 1149 582 248 105 429 149 66 80 195 334 206 0 0 0 0 0 0 0 2 4 2 0 0 0 0
0 0 0 0 0 0 0 0 0 0 0 0 0 0 0 0 3 18 781 790 949 806 705 1140 1217 827 607 402 523 140 29 18 100 148 313 75 4 4 0 0 0 1 4 6 3 1 0 0 1
0 0 0 0 0 0 0 0 0 0 0 0 0 0 0 15 0 628 885 880 818 648 821 1008 1392 895 526 416 678 428 92 39 61 76 110 73 27 28 0 0 0 2 6 28 14 1 1 4 1
0 0 0 0 0 0 0 0 0 0 0 0 0 0 0 0 0 470 947 756 644 607 958 969 1348 1263 1013 576 367 474 323 175 161 217 193 114 71 66 44 0 0 6 2 29 38 67 60 18 0
0 0 0 0 0 0 0 0 0 0 0 0 0 0 0 13 0 12 549 606 593 701 924 898 992 999 1054 964 452 346 445 407 446 522 460 428 439 349 186 53 73 5 68 127 129 94 19 0 0
0 0 0 0 0 0 0 0 0 0 0 0 0 0 46 69 1 0 649 693 723 695 700 774 898 832 751 681 566 400 468 406 432 577 410 204 370 618 544 334 380 66 187 76 34 0 0 0 0
0 0 0 0 0 0 0 0 0 0 0 0 0 0 0 37 30 0 634 901 912 653 633 655 697 692 648 494 426 477 435 397 440 402 103 48 198 384 358 208 295 410 220 19 0 0 0 0 0
0 0 0 0 0 0 0 0 0 0 0 0 0 0 0 14 13 29 390 1036 994 783 673 580 657 661 606 605 417 264 174 151 185 168 35 0 44 126 170 165 220 433 146 0 0 0 0 0 0
0 0 0 0 0 0 0 0 0 0 0 0 0 1 0 0 0 129 30 754 1179 1035 834 674 639 606 625 621 377 196 94 33 90 83 28 0 0 7 17 22 50 23 0 0 0 0 0 0 0
0 0 0 0 0 0 0 0 0 0 0 0 0 0 0 0 0 0 123 30 239 1085 1084 861 671 636 623 546 354 224 107 12 15 34 12 0 0 0 0 0 0 0 0 0 0 0 0 0 0
0 0 0 0 0 0 0 0 0 0 0 0 0 0 0 0 0 0 0 0 0 303 1202 1127 968 838 766 445 326 215 140 40 1 0 0 0 0 0 0 0 0 0 0 0 0 0 0 0 0
0 0 0 0 0 0 0 0 0 0 0 0 0 0 0 0 0 0 0 0 0 5 172 1249 1220 1017 881 661 359 198 174 71 3 0 0 0 0 0 0 0 0 0 0 0 0 0 0 0 0
0 0 0 0 0 0 0 0 0 0 0 0 0 0 0 0 0 0 0 0 0 0 62 109 1145 1044 936 757 436 387 322 144 30 10 0 0 0 0 0 0 0 0 0 0 0 0 0 0 0
0 0 0 0 0 0 0 0 0 0 0 0 0 0 0 0 0 0 0 0 0 0 0 163 910 1087 899 834 606 420 210 126 20 41 0 0 0 0 0 0 0 0 0 0 0 0 0 0 0
0 0 0 0 0 0 0 0 0 0 0 0 0 0 0 0 0 0 0 0 0 0 0 77 482 820 1014 896 666 353 309 72 64 156 18 0 0 0 0 0 0 0 0 0 0 0 0 0 0
0 0 0 0 0 0 0 0 0 0 0 0 0 0 0 0 0 0 0 0 0 0 0 0 572 810 838 682 635 219 219 100 89 199 18 0 0 0 0 0 0 0 0 0 0 0 0 0 0
0 0 0 0 0 0 0 0 0 0 0 0 0 0 0 0 0 0 0 0 0 0 0 0 282 848 943 678 642 471 475 256 133 115 0 0 0 0 0 0 0 0 0 0 0 0 0 0 0
0 0 0 0 0 0 0 0 0 0 0 0 0 0 0 0 0 0 0 0 0 0 0 0 0 798 979 969 991 757 529 216 198 0 0 0 0 0 0 0 0 0 0 0 0 0 0 0 0
0 0 0 0 0 0 0 0 0 0 0 0 0 0 0 0 0 0 0 0 0 0 0 0 0 94 1143 1077 455 0 0 0 0 0 0 0 0 0 0 0 0 0 0 0 0 0 0 0 0
0 0 0 0 0 0 0 0 0 0 0 0 0 0 0 0 0 0 0 0 0 0 0 0 0 0 1057 880 501 137 225 49 0 0 0 0 0 0 0 0 0 0 0 0 0 0 0 0 0
0 0 0 0 0 0 0 0 0 0 0 0 0 0 0 0 0 0 0 0 0 0 0 0 0 0 769 848 550 294 295 154 0 0 0 0 0 0 0 0 0 0 0 0 0 0 0 0 0
0 0 0 0 0 0 0 0 0 0 0 0 0 0 0 0 0 0 0 0 0 0 0 0 0 0 0 764 556 439 169 0 0 0 0 0 0 0 0 0 0 0 0 0 0 0 0 0 0
0 0 0 0 0 0 0 0 0 0 0 0 0 0 0 0 0 0 0 0 0 0 0 0 0 0 0 710 510 403 0 0 0 0 0 0 0 0 0 0 0 0 0 0 0 0 0 0 0
0 0 0 0 0 0 0 0 0 0 0 0 0 0 0 0 0 0 0 0 0 0 0 0 0 0 64 448 396 337 0 0 0 0 0 0 0 0 0 0 0 0 0 0 0 0 0 0 0
0 0 0 0 0 0 0 0 0 0 0 0 0 0 0 0 0 0 0 0 0 0 0 0 0 0 0 406 69 0 0 0 0 0 0 0 0 0 0 0 0 0 0 0 0 0 0 0 0
0 0 0 0 0 0 0 0 0 0 0 0 0 0 0 0 0 0 0 0 0 0 0 0 0 0 0 420 115 0 0 0 0 0 0 0 0 0 0 0 0 0 0 0 0 0 0 0 0
0 0 0 0 0 0 0 0 0 0 0 0 0 0 0 0 0 0 0 0 0 0 0 0 0 0 0 378 224 0 0 0 0 0 0 0 0 0 0 0 0 0 0 0 0 0 0 0 0
0 0 0 0 0 0 0 0 0 0 0 0 0 0 0 0 0 0 0 0 0 0 0 0 0 0 0 515 0 0 0 0 0 0 0 0 0 0 0 0 0 0 0 0 0 0 0 0 0